Wind_Speed
43 43 39 37 35 34 33 30 25 24 24 22 19 16 14 12 12 13 16 19 22 23 24 24 23 22 21 21 21 22 24 25 24 23 21 19 17 15 14 13 11 10 8 7 6 5 3 2 1 1 1 2 3 4 5 6 7 7 8 9 9 9 9
43 43 40 38 37 36 35 31 27 26 25 23 20 17 14 12 11 11 13 17 21 23 24 25 24 22 21 21 22 23 24 24 24 23 21 20 18 16 15 13 12 11 9 8 7 5 4 3 2 2 2 3 4 4 5 6 7 7 8 9 9 9 9
43 43 41 39 38 38 36 32 28 27 25 23 20 18 15 14 13 12 12 15 18 21 23 25 25 24 23 23 23 24 24 24 24 23 22 20 19 18 16 15 13 12 11 9 8 7 6 5 4 4 4 5 5 6 6 6 7 8 8 9 9 9 9
45 44 43 41 40 39 36 32 30 29 28 25 23 21 19 17 16 16 16 15 16 19 21 23 25 26 26 25 24 25 25 25 24 23 22 21 20 19 18 17 15 14 12 11 10 9 8 7 7 6 6 6 7 7 8 8 8 8 9 9 10 10 9
47 46 44 43 42 40 37 34 33 32 31 28 26 23 22 21 19 18 17 16 15 16 17 20 23 26 27 27 26 26 26 26 25 24 23 22 21 20 19 17 16 15 14 13 12 11 11 10 10 9 8 8 8 9 9 9 9 9 9 10 10 10 10
49 48 46 45 43 40 38 37 36 35 34 30 27 24 23 23 21 19 18 17 16 15 16 17 19 23 27 29 30 29 29 28 28 27 26 25 23 22 20 19 18 17 16 15 14 14 13 13 12 12 11 11 11 11 11 11 11 11 11 11 11 11 11
52 50 49 46 43 41 40 39 38 37 34 31 28 26 25 25 23 21 20 19 18 17 16 15 16 19 23 27 30 31 31 31 30 29 28 27 26 24 22 21 20 19 19 18 18 17 16 16 15 15 14 14 14 14 14 14 14 13 13 13 13 13 13
54 52 50 48 45 43 42 41 40 37 34 32 30 28 27 27 25 23 22 21 20 19 16 15 14 15 18 22 26 29 31 32 31 31 30 29 29 27 26 25 23 22 22 21 20 20 19 19 18 18 17 16 16 16 16 16 16 16 16 15 15 15 15
56 53 51 49 46 45 44 42 39 37 35 33 32 29 29 29 28 26 25 23 22 21 19 15 14 14 15 19 22 25 28 30 31 31 31 31 30 30 29 27 26 25 24 23 22 22 22 22 21 20 20 19 19 19 19 19 19 19 19 18 18 18 17
59 55 53 51 48 46 45 42 39 37 36 35 34 32 31 31 29 27 26 24 22 22 20 17 15 15 16 16 18 22 25 27 29 29 30 30 31 30 30 29 28 27 26 25 25 24 24 24 24 23 22 22 21 21 21 22 22 21 21 20 20 20 20
60 57 54 53 51 48 46 44 41 40 39 38 37 34 33 32 30 27 26 23 21 22 22 19 16 15 15 16 16 19 22 24 26 26 26 27 28 29 29 29 29 28 27 27 26 26 27 27 26 26 25 24 24 24 24 24 24 24 23 23 23 23 22
62 59 56 55 54 51 48 46 44 43 42 40 38 36 35 33 30 28 26 24 23 23 22 20 18 16 15 16 17 18 20 23 24 25 24 23 23 25 26 27 27 27 27 27 27 27 28 28 28 27 27 26 26 27 27 27 27 26 26 25 25 24 25
63 59 57 57 57 54 50 48 46 45 44 42 40 38 36 35 32 29 27 26 25 24 23 22 21 19 17 17 18 18 19 21 23 24 23 21 21 22 23 24 25 25 25 25 25 26 27 28 28 28 28 28 28 28 29 29 29 28 27 27 26 26 27
63 60 58 59 60 58 54 51 48 47 45 43 40 39 38 37 34 31 29 28 27 26 25 25 23 22 21 20 19 19 20 20 22 23 23 22 21 21 22 23 24 24 23 23 24 25 25 26 27 28 28 29 29 29 30 31 30 29 29 28 27 28 29
65 62 61 61 61 58 53 51 50 48 46 44 41 41 40 39 37 34 31 30 29 28 28 26 25 24 24 22 20 19 20 20 21 23 24 23 22 22 22 23 23 24 24 24 24 24 24 25 26 27 28 29 29 30 31 31 31 31 30 29 29 29 30
67 66 64 62 61 58 55 54 52 50 47 44 42 41 40 39 37 35 33 32 31 30 28 28 27 26 25 24 24 23 22 22 22 23 24 25 24 23 22 22 23 24 25 25 25 25 25 25 26 28 28 29 29 30 31 32 32 31 30 30 31 31 31
70 69 66 62 61 61 59 58 55 52 48 46 43 40 38 38 36 34 33 32 31 31 30 29 28 27 26 26 27 27 26 24 24 24 25 26 25 25 24 23 23 24 25 26 26 26 26 26 27 28 29 30 30 31 32 33 32 32 32 31 32 32 33
74 72 69 64 61 62 63 59 56 53 50 47 45 41 38 37 36 35 34 34 34 34 32 31 29 28 27 28 29 31 31 28 26 26 26 27 27 27 26 25 25 25 26 26 26 27 27 27 28 28 29 31 32 33 34 34 34 34 33 33 33 34 35
79 77 75 71 67 65 66 62 57 55 52 47 44 43 42 41 40 39 38 37 36 36 35 33 30 28 28 29 32 34 35 33 30 28 28 28 28 28 28 27 27 27 26 26 25 26 28 29 29 29 30 31 32 34 35 35 36 35 35 35 35 36 37
84 82 80 77 74 69 65 60 56 55 53 46 43 45 48 48 46 42 39 39 37 37 38 37 35 32 29 30 34 37 39 38 35 32 30 30 30 30 30 29 29 28 27 26 25 26 27 29 30 30 31 31 32 34 35 36 36 36 36 36 36 37 38
89 86 82 81 79 71 63 57 54 56 56 50 44 45 49 53 52 45 42 43 42 41 41 40 40 38 34 33 35 38 40 39 37 35 33 32 32 32 31 30 29 28 28 28 27 26 26 27 29 30 32 32 33 34 35 36 36 36 36 36 37 38 39
92 89 85 83 83 77 70 63 58 60 62 56 49 49 52 55 56 51 48 48 46 45 44 44 45 43 40 39 39 38 38 38 38 38 36 34 34 34 33 32 30 29 28 28 29 28 27 27 28 30 31 33 33 34 35 36 37 37 37 36 36 38 39
94 92 88 86 85 84 81 75 67 65 66 60 53 55 60 60 58 55 53 51 49 48 47 47 47 46 45 45 45 44 42 42 42 42 39 37 36 35 34 33 31 30 29 29 30 30 29 28 28 29 30 32 34 35 36 36 37 38 38 38 38 39 40
96 95 91 88 87 86 86 84 78 73 70 65 59 58 59 60 59 57 56 54 52 52 50 48 49 49 48 49 51 50 48 45 45 45 43 39 38 37 35 35 33 32 31 30 30 31 30 30 29 30 31 31 33 35 36 36 37 38 39 39 39 40 41
98 98 95 91 89 88 87 87 85 81 77 74 71 66 62 59 59 58 58 56 54 53 52 51 51 51 51 52 53 52 49 44 43 44 44 42 39 37 36 35 35 34 33 33 32 32 31 31 31 31 32 32 32 34 35 36 37 38 38 39 40 40 41
99 100 98 94 91 90 89 87 86 84 82 80 79 76 70 65 62 61 60 57 54 53 53 54 55 54 53 53 53 51 49 44 40 41 41 40 38 37 36 36 36 36 36 35 34 34 33 33 32 32 32 33 33 33 35 36 37 37 38 38 39 40 41
101 101 100 97 93 91 90 88 87 86 84 82 81 78 74 70 67 65 64 61 57 55 57 58 58 57 54 54 55 53 50 46 42 40 39 38 38 37 38 38 38 38 38 37 37 36 35 34 34 34 34 34 34 34 35 36 37 37 37 38 39 40 41
102 102 102 100 96 93 90 89 88 87 86 84 82 79 76 73 70 68 67 64 61 61 62 62 60 58 56 56 57 56 53 51 49 46 44 43 41 41 41 40 40 39 39 39 39 38 37 36 35 35 35 35 36 36 36 36 37 38 38 38 38 40 41
104 104 105 103 98 94 91 90 90 89 88 86 83 80 78 75 71 69 67 66 66 66 66 64 62 59 57 57 59 59 57 55 53 50 46 45 43 42 42 43 42 41 41 41 41 40 38 38 37 37 37 37 38 38 38 38 38 38 38 38 38 39 41
106 106 106 104 99 96 94 92 92 91 90 87 85 82 79 76 73 72 70 69 70 71 68 66 64 61 59 59 60 60 57 54 52 50 49 47 45 43 44 44 44 43 43 42 42 41 40 39 39 39 39 40 40 41 41 40 39 38 38 39 39 40 41
107 106 106 104 101 98 96 95 94 93 91 88 85 82 80 77 75 75 74 73 73 73 71 69 67 65 64 62 61 60 56 52 49 50 50 49 47 44 44 45 45 44 43 43 43 42 42 42 42 41 42 42 43 42 42 41 41 40 39 38 39 40 41
108 106 106 106 103 100 98 96 95 93 92 89 86 83 81 79 77 76 77 77 76 75 73 70 69 68 67 65 62 60 58 53 50 50 51 51 49 48 47 48 48 45 43 44 44 44 44 44 44 45 45 45 45 43 42 42 42 41 40 40 41 42 42
111 109 109 107 105 102 100 97 95 94 92 90 87 84 82 81 79 78 79 79 78 77 75 73 71 69 68 66 64 62 58 54 51 50 51 51 51 51 51 51 49 46 45 46 46 46 46 47 47 47 48 47 46 44 43 42 42 43 42 42 42 42 42
114 112 110 108 106 104 102 99 96 94 93 91 89 85 83 82 80 80 80 80 80 78 76 75 73 72 69 67 65 63 60 55 52 51 51 52 52 52 52 52 51 49 49 49 48 48 49 49 50 50 50 48 46 44 43 43 44 44 44 43 42 43 43
117 114 111 108 106 105 103 100 97 94 92 92 90 87 85 83 82 80 80 81 80 78 76 75 74 72 71 69 67 65 62 60 58 57 56 55 55 55 54 54 54 53 52 52 51 51 52 52 52 52 50 48 46 45 45 45 45 45 45 44 43 44 44
119 116 111 107 106 105 103 100 97 94 93 92 90 88 86 85 84 82 82 81 80 78 76 75 74 71 69 68 67 65 64 62 61 60 59 58 57 56 56 56 56 56 55 55 55 54 53 53 53 53 50 48 46 46 46 45 45 46 45 45 44 44 44
120 117 112 107 106 105 104 101 99 95 93 92 91 88 87 86 85 84 83 82 81 79 78 76 74 72 69 67 66 66 65 64 62 60 59 56 55 55 56 57 58 58 58 58 58 56 55 54 54 53 50 48 47 46 46 46 45 45 45 45 45 45 45
120 117 113 109 107 107 106 103 100 97 94 92 91 88 87 86 85 84 83 82 81 79 78 77 74 72 70 68 67 66 65 62 58 55 52 52 53 55 58 59 61 61 61 61 60 59 57 56 55 53 51 49 48 47 47 46 45 45 45 46 47 45 44
Wind_Direction
213 215 214 209 206 209 211 209 205 205 207 206 202 196 198 206 205 200 196 196 197 197 194 195 197 197 197 197 194 191 190 188 188 190 191 191 189 187 186 183 179 175 172 172 177 179 178 178 192 229 323 345 354 358 357 357 356 358 359 360 1 3 7
213 212 208 205 207 209 209 207 204 205 207 205 203 199 198 202 205 208 206 201 200 199 197 197 198 199 200 200 198 196 195 194 194 195 195 195 193 193 194 191 187 185 185 189 196 201 206 213 239 268 293 314 325 333 339 344 348 350 352 354 356 357 360
210 207 203 204 208 209 208 206 204 207 208 205 204 200 195 199 202 203 207 209 206 203 200 199 198 198 201 203 202 201 201 200 199 199 199 198 196 196 197 195 193 193 193 197 206 215 222 231 250 267 283 298 306 312 318 325 333 338 341 344 347 349 351
210 207 204 204 208 210 209 206 205 208 208 204 203 200 195 196 199 197 197 202 206 206 204 202 200 198 200 204 205 205 205 205 204 203 203 202 201 200 200 199 197 197 198 204 211 219 227 236 247 259 272 284 292 297 302 309 315 321 327 330 334 338 341
211 208 207 207 208 209 208 206 206 208 208 204 201 200 198 197 196 195 194 194 198 202 205 206 203 201 201 203 206 208 210 210 209 209 208 208 208 207 207 205 204 203 206 211 216 222 232 238 245 253 262 271 280 285 289 295 300 305 311 315 318 323 327
211 209 210 210 208 208 208 207 206 208 208 205 202 201 202 202 198 195 195 194 193 195 199 204 206 206 205 205 206 208 211 213 213 213 213 213 214 214 214 214 213 212 215 219 223 227 234 240 245 251 256 262 268 275 280 283 288 292 296 300 303 307 312
211 210 211 211 211 210 210 209 208 208 209 205 203 203 204 205 202 197 195 195 196 195 192 194 203 210 211 210 210 211 213 215 216 216 217 218 219 220 221 222 222 222 223 226 228 231 235 239 244 248 253 257 261 266 272 276 280 283 286 288 291 294 299
211 210 212 211 211 212 212 211 210 209 210 208 206 207 207 207 205 201 197 196 200 202 197 188 191 204 213 215 216 217 219 220 220 219 219 220 222 222 224 225 226 227 229 230 233 234 237 239 242 245 250 253 257 261 266 271 275 277 280 281 283 286 289
211 210 212 211 211 213 213 212 211 210 211 212 210 210 211 211 209 206 201 198 200 203 205 199 188 189 205 216 219 221 225 226 227 226 224 223 224 225 226 227 229 230 232 234 236 238 240 241 243 245 249 253 257 260 263 267 271 274 276 278 279 281 284
212 210 212 212 211 213 213 211 211 211 212 213 212 211 211 213 213 211 208 205 204 205 208 210 203 192 193 205 217 224 228 231 233 233 232 230 229 229 229 230 232 234 235 237 240 243 244 246 247 249 253 256 259 261 263 265 268 271 274 275 277 279 281
214 210 210 211 211 212 212 211 210 211 213 214 213 211 211 213 215 214 213 213 213 212 211 214 217 209 196 194 208 222 231 237 240 241 238 235 234 233 234 235 236 238 240 241 243 246 248 250 252 254 257 260 262 263 264 265 268 271 273 275 276 278 279
213 210 208 210 211 211 211 211 210 210 213 214 213 212 213 215 215 214 214 216 216 215 215 218 223 224 212 199 201 214 227 238 245 247 247 243 238 236 236 238 240 241 243 244 246 248 249 252 254 256 259 261 263 264 266 267 269 272 274 276 277 278 279
211 211 210 211 212 210 209 210 211 211 212 214 212 212 213 215 215 214 214 215 216 216 218 222 225 227 226 216 207 208 219 233 243 249 252 250 245 241 239 239 241 242 244 246 248 249 251 253 255 257 259 261 262 264 266 268 270 272 275 276 276 276 277
207 210 211 214 214 210 208 210 212 212 213 214 215 215 214 216 216 215 215 215 216 217 219 222 224 227 230 228 219 211 213 223 236 245 250 251 248 245 244 243 243 243 243 245 246 249 251 254 257 258 259 260 261 263 265 267 269 271 273 274 275 274 275
203 207 212 216 217 214 211 211 214 215 215 216 218 217 216 217 218 217 218 218 219 221 222 224 225 226 229 232 230 222 215 217 226 236 243 248 247 245 244 245 247 248 248 247 247 248 249 252 255 258 259 261 262 264 265 266 268 270 271 272 273 273 274
202 203 208 215 219 219 214 213 215 217 218 218 218 218 218 219 220 220 220 221 223 225 226 227 227 227 229 234 236 233 225 220 222 228 235 241 245 246 244 243 245 247 250 252 252 251 251 252 254 256 259 261 263 264 266 267 269 270 271 272 272 273 274
204 202 204 210 218 222 220 216 215 217 219 219 218 219 221 222 223 223 223 225 228 229 229 230 231 230 231 235 239 240 235 228 224 226 231 236 241 244 245 245 244 243 246 250 252 254 254 255 256 258 261 263 264 265 267 268 270 271 272 273 274 276 277
207 204 202 204 212 222 225 221 217 217 219 222 222 222 223 223 224 225 225 225 227 229 230 232 234 235 237 241 245 246 245 241 233 229 230 234 238 242 244 245 245 245 244 245 249 253 256 258 258 260 262 264 266 267 269 271 273 273 274 275 276 277 278
209 206 203 201 204 214 221 222 220 219 219 223 230 232 230 227 225 225 225 225 227 228 228 230 234 239 244 249 253 254 252 250 245 239 235 236 238 242 245 246 247 249 249 248 247 250 253 256 259 259 261 263 266 269 271 274 275 276 277 278 278 279 280
212 208 205 203 203 208 215 219 220 219 216 218 229 237 238 235 230 226 226 226 227 228 227 226 228 232 238 245 252 255 254 251 249 247 243 242 244 245 247 250 251 253 256 256 254 252 252 255 258 260 261 262 264 267 269 272 274 276 278 279 280 280 281
214 211 207 206 205 205 208 212 214 214 211 210 217 227 234 235 231 227 226 225 225 226 227 226 226 226 226 229 235 243 245 246 247 247 246 246 248 250 251 253 255 257 260 263 264 262 259 258 259 261 263 263 263 264 266 268 271 273 274 276 278 279 280
216 213 210 208 206 204 204 206 206 206 206 205 208 215 222 226 225 222 224 225 224 223 224 226 227 227 224 222 223 229 236 239 242 244 246 247 249 252 254 255 256 258 260 264 266 268 268 266 266 266 267 267 267 267 268 268 269 270 271 272 273 276 277
217 216 212 210 209 207 207 208 206 204 204 204 206 212 218 222 221 220 221 224 225 225 224 224 227 229 229 227 225 227 233 239 242 242 242 245 248 250 253 255 256 257 258 261 265 268 270 272 272 273 273 272 272 274 275 274 274 274 274 273 272 272 274
217 218 215 211 211 211 210 211 211 208 207 207 207 211 216 220 221 220 220 222 225 226 226 226 227 229 232 233 232 232 234 241 245 242 239 241 246 249 252 254 256 257 259 260 263 266 270 273 274 276 277 278 278 279 280 280 280 279 279 278 276 274 274
217 219 217 213 212 213 213 214 214 213 212 211 212 214 216 219 220 220 220 221 223 224 226 228 229 230 232 234 235 234 235 242 247 245 240 240 244 248 252 256 258 259 260 262 263 265 268 271 274 276 278 281 282 282 283 283 283 283 282 281 280 278 277
216 219 220 216 212 213 215 215 216 216 214 214 216 218 219 220 221 222 221 222 222 223 225 227 229 231 233 236 237 234 232 237 245 248 246 246 248 250 254 257 259 260 262 264 265 266 268 271 273 276 279 281 283 283 284 284 284 284 284 283 282 280 278
215 218 220 218 214 213 215 216 217 217 217 216 217 218 218 219 221 223 223 224 224 224 225 227 229 231 233 236 238 235 231 232 240 246 250 254 257 257 257 258 259 261 263 265 266 267 269 272 275 277 279 282 283 284 285 285 286 286 286 285 283 281 280
215 217 219 220 216 213 214 216 217 218 219 218 217 217 218 218 219 221 222 224 226 227 228 229 230 231 232 234 236 236 234 234 240 246 252 257 261 260 260 260 260 262 264 266 267 269 271 274 276 278 280 281 283 284 285 286 287 288 288 288 286 283 281
214 216 219 220 217 214 213 215 217 218 219 219 218 217 218 218 219 220 221 223 226 228 229 230 230 231 233 235 236 237 237 239 242 246 252 257 258 260 261 261 261 263 264 266 268 270 273 275 277 278 279 281 282 283 285 287 289 290 292 292 291 287 284
214 215 218 220 218 215 214 214 217 219 219 219 219 218 218 218 219 221 222 223 225 227 228 229 230 231 233 236 238 240 242 245 247 249 253 255 257 259 260 260 261 264 266 268 270 272 274 276 276 277 278 279 280 282 285 288 291 294 295 296 295 292 289
214 215 218 220 219 217 215 214 216 218 220 220 219 219 218 218 219 220 222 223 225 227 227 227 228 230 233 235 238 242 245 247 249 250 251 252 255 258 257 259 263 266 268 271 272 273 274 275 276 277 278 278 280 282 286 290 293 295 297 298 298 296 294
214 214 216 219 219 218 216 214 215 217 220 220 220 220 219 218 218 220 222 223 224 226 227 227 228 230 233 235 238 241 244 247 248 249 250 252 254 255 256 260 264 266 268 271 272 272 274 275 276 277 278 279 281 284 287 290 293 294 297 299 300 300 299
215 214 215 217 219 219 218 216 214 216 219 220 220 220 220 219 219 220 223 224 225 225 227 228 229 231 234 236 238 240 243 246 246 246 248 250 251 254 257 260 262 264 268 270 270 271 273 274 275 276 277 279 282 285 287 289 290 292 296 300 302 302 301
216 215 215 216 217 218 219 217 215 215 217 219 219 220 220 220 220 221 223 225 226 226 226 227 229 232 234 237 238 239 242 244 244 245 248 249 252 255 258 259 260 263 267 269 269 270 271 272 273 274 276 279 282 284 286 287 288 292 296 300 302 302 301
216 216 215 216 217 219 219 219 216 214 215 218 219 219 220 220 220 221 222 225 227 228 228 228 230 233 235 237 238 240 242 244 246 249 251 252 253 256 257 259 261 264 267 269 269 269 269 269 270 272 275 278 281 282 283 285 287 291 295 298 301 302 302
215 215 215 216 218 220 220 220 218 215 215 217 219 219 219 220 220 221 222 224 227 228 229 230 231 233 235 237 239 240 243 245 248 250 252 253 255 257 258 261 264 266 267 267 266 266 266 266 268 270 274 277 278 279 281 283 286 290 294 297 300 302 304
215 215 214 215 217 220 221 221 220 218 216 217 218 219 219 220 221 221 222 224 225 227 229 230 231 233 235 237 238 240 242 244 246 248 250 254 257 260 262 264 265 265 265 265 265 265 265 265 267 270 273 275 276 278 280 282 285 289 292 296 300 302 303
215 215 214 213 215 218 220 221 221 220 217 217 218 218 219 220 221 221 222 223 225 226 228 230 231 233 235 237 238 240 242 244 246 250 256 261 263 264 264 264 265 264 264 264 265 264 264 265 267 270 271 273 274 276 278 280 284 288 292 296 300 301 303
Height
10968 10971 10974 10978 10981 10983 10986 10988 10990 10992 10994 10995 10996 10998 10999 11001 11002 11003 11004 11005 11006 11007 11008 11010 11012 11014 11016 11018 11020 11022 11023 11024 11026 11027 11029 11030 11032 11033 11034 11035 11036 11037 11038 11039 11039 11040 11041 11041 11042 11042 11043 11043 11043 11043 11043 11042 11042 11042 11041 11041 11041 11041 11040
10964 10966 10970 10973 10976 10979 10982 10985 10987 10990 10992 10994 10995 10997 10998 11000 11002 11003 11003 11004 11004 11006 11007 11009 11011 11014 11016 11018 11019 11021 11022 11024 11025 11026 11028 11029 11031 11032 11033 11034 11035 11036 11037 11038 11038 11039 11040 11041 11041 11042 11042 11042 11042 11042 11042 11042 11042 11042 11041 11041 11041 11041 11041
10960 10962 10965 10969 10973 10976 10979 10981 10984 10987 10990 10992 10993 10995 10997 10999 11001 11002 11003 11003 11004 11005 11006 11008 11010 11013 11015 11017 11019 11020 11022 11023 11024 11025 11027 11028 11029 11031 11032 11033 11034 11035 11036 11037 11038 11038 11039 11040 11040 11041 11041 11041 11041 11041 11041 11041 11041 11041 11041 11041 11041 11040 11040
10955 10958 10962 10966 10970 10973 10976 10978 10981 10984 10987 10989 10991 10993 10995 10997 10999 11000 11001 11002 11003 11004 11005 11007 11009 11011 11014 11016 11018 11020 11021 11022 11023 11025 11026 11027 11028 11029 11030 11032 11033 11034 11035 11036 11036 11037 11038 11039 11039 11040 11040 11040 11040 11040 11040 11040 11041 11041 11040 11040 11040 11040 11040
10952 10956 10959 10963 10966 10969 10972 10975 10979 10982 10985 10987 10989 10991 10993 10995 10997 10998 11000 11000 11001 11002 11004 11006 11008 11010 11012 11015 11017 11018 11020 11021 11022 11023 11025 11026 11027 11028 11029 11031 11032 11033 11034 11034 11035 11036 11037 11037 11038 11039 11039 11039 11040 11039 11039 11040 11040 11040 11040 11039 11039 11039 11039
10949 10952 10955 10958 10962 10966 10969 10973 10977 10980 10982 10985 10987 10990 10992 10993 10995 10996 10998 10999 11000 11001 11002 11004 11007 11009 11011 11012 11014 11017 11018 11019 11021 11022 11023 11024 11025 11027 11028 11029 11030 11031 11032 11033 11034 11035 11035 11036 11037 11037 11038 11038 11039 11038 11038 11038 11039 11039 11039 11038 11038 11038 11038
10944 10948 10952 10956 10960 10964 10967 10970 10974 10977 10980 10983 10985 10987 10989 10991 10993 10995 10996 10998 10999 10999 11000 11001 11004 11007 11009 11011 11013 11015 11016 11017 11019 11020 11021 11022 11024 11025 11027 11028 11029 11030 11031 11031 11032 11033 11034 11035 11035 11036 11037 11037 11037 11037 11037 11037 11037 11037 11037 11037 11037 11037 11037
10939 10944 10948 10953 10957 10960 10964 10967 10971 10974 10977 10979 10982 10984 10987 10989 10991 10992 10994 10996 10997 10998 10999 10999 11001 11004 11007 11010 11013 11014 11016 11017 11018 11019 11020 11021 11022 11023 11024 11025 11027 11028 11029 11030 11031 11031 11032 11033 11034 11035 11035 11036 11036 11036 11036 11036 11036 11036 11036 11036 11036 11035 11035
10933 10939 10944 10949 10953 10957 10960 10964 10968 10972 10974 10977 10979 10982 10985 10987 10989 10990 10992 10993 10994 10996 10998 10999 11000 11001 11004 11007 11011 11014 11016 11017 11017 11018 11019 11019 11020 11021 11022 11023 11024 11025 11027 11028 11029 11030 11031 11031 11032 11033 11033 11034 11034 11034 11035 11034 11034 11034 11034 11034 11034 11034 11034
10928 10935 10939 10944 10949 10952 10956 10961 10965 10969 10971 10973 10976 10979 10982 10984 10987 10989 10990 10991 10993 10994 10997 10999 11000 11000 11000 11003 11008 11012 11015 11016 11017 11018 11018 11018 11019 11019 11020 11021 11022 11023 11025 11026 11027 11028 11029 11029 11030 11031 11032 11032 11033 11033 11033 11033 11032 11032 11033 11033 11033 11032 11032
10923 10931 10936 10940 10945 10948 10953 10958 10962 10965 10967 10970 10973 10976 10979 10982 10985 10988 10989 10990 10992 10993 10995 10998 11000 11001 11000 11001 11004 11008 11012 11014 11016 11016 11017 11018 11018 11018 11019 11020 11020 11021 11023 11024 11025 11026 11027 11027 11028 11029 11030 11031 11031 11031 11031 11031 11031 11031 11031 11031 11031 11031 11030
10919 10926 10932 10935 10939 10944 10949 10954 10957 10961 10963 10966 10970 10973 10976 10979 10982 10985 10987 10989 10991 10992 10994 10996 10999 11001 11001 11000 11001 11004 11009 11012 11013 11015 11016 11017 11018 11018 11018 11018 11019 11020 11021 11022 11023 11024 11025 11025 11026 11027 11028 11029 11029 11029 11029 11028 11029 11029 11029 11029 11029 11029 11028
10918 10924 10929 10931 10934 10940 10946 10950 10953 10956 10959 10962 10966 10970 10973 10976 10979 10982 10985 10987 10989 10990 10992 10994 10997 10999 11000 11000 10999 11001 11005 11008 11011 11013 11014 11015 11016 11016 11016 11016 11016 11017 11018 11020 11021 11022 11023 11023 11024 11025 11026 11027 11027 11027 11026 11026 11026 11027 11027 11027 11027 11027 11026
10919 10923 10924 10924 10928 10934 10941 10945 10948 10952 10955 10959 10963 10967 10970 10972 10975 10979 10981 10984 10987 10989 10990 10992 10994 10996 10997 10998 10998 10999 11001 11004 11008 11010 11012 11013 11014 11014 11014 11014 11014 11015 11016 11017 11018 11019 11020 11021 11022 11023 11024 11024 11024 11024 11024 11024 11024 11025 11025 11025 11025 11025 11024
10917 10921 10922 10921 10925 10933 10941 10945 10946 10949 10953 10957 10960 10963 10967 10970 10973 10976 10979 10981 10984 10986 10988 10990 10992 10992 10993 10996 10997 10998 10999 11001 11004 11007 11008 11009 11010 11011 11012 11012 11012 11013 11013 11014 11015 11016 11018 11019 11020 11020 11021 11021 11022 11022 11022 11021 11021 11022 11023 11023 11023 11022 11022
10913 10918 10920 10922 10925 10932 10939 10942 10944 10948 10952 10955 10958 10961 10965 10968 10971 10974 10977 10979 10981 10983 10986 10988 10989 10989 10990 10992 10995 10996 10997 10997 10999 11002 11005 11006 11007 11008 11009 11010 11010 11011 11011 11011 11013 11014 11015 11016 11017 11017 11018 11019 11019 11019 11019 11019 11019 11020 11021 11021 11020 11020 11020
10907 10913 10918 10923 10926 10928 10931 10935 10940 10946 10950 10954 10958 10962 10965 10968 10971 10973 10976 10978 10978 10979 10981 10983 10985 10985 10987 10989 10991 10993 10994 10994 10995 10997 11000 11002 11003 11004 11005 11006 11007 11008 11008 11009 11010 11011 11013 11014 11015 11015 11016 11016 11017 11017 11016 11017 11017 11018 11018 11019 11018 11018 11018
10899 10906 10913 10920 10924 10926 10927 10932 10939 10944 10948 10952 10957 10961 10965 10967 10969 10971 10972 10972 10973 10974 10976 10978 10980 10982 10983 10985 10987 10989 10990 10991 10992 10993 10996 10998 11000 11001 11002 11002 11003 11004 11005 11006 11008 11009 11010 11011 11012 11013 11014 11014 11014 11014 11014 11014 11015 11016 11016 11016 11016 11015 11015
10887 10896 10903 10909 10914 10917 10918 10924 10932 10939 10946 10953 10958 10961 10963 10964 10964 10965 10966 10967 10967 10969 10971 10973 10976 10979 10982 10983 10984 10986 10987 10988 10989 10990 10992 10994 10996 10997 10998 10999 10999 11000 11001 11003 11005 11006 11007 11008 11009 11010 11011 11012 11012 11012 11012 11012 11013 11013 11014 11014 11014 11013 11012
10876 10886 10894 10900 10905 10908 10912 10917 10925 10933 10942 10952 10958 10959 10959 10958 10959 10961 10962 10963 10964 10965 10966 10968 10969 10972 10976 10980 10982 10982 10982 10983 10985 10986 10988 10991 10993 10994 10995 10996 10996 10997 10998 11000 11002 11004 11004 11005 11006 11007 11008 11009 11009 11009 11009 11009 11010 11010 11011 11012 11011 11011 11010
10866 10876 10886 10892 10897 10903 10908 10913 10920 10926 10932 10940 10947 10951 10951 10950 10954 10959 10958 10955 10956 10959 10961 10962 10963 10963 10967 10971 10973 10974 10975 10977 10981 10983 10984 10987 10989 10991 10992 10993 10994 10995 10996 10997 10998 11000 11002 11003 11003 11004 11004 11005 11006 11006 11006 11006 11007 11007 11008 11009 11009 11008 11007
10858 10868 10878 10885 10891 10897 10901 10905 10912 10917 10921 10926 10932 10937 10939 10939 10945 10953 10952 10948 10950 10953 10955 10957 10958 10960 10961 10962 10964 10966 10968 10972 10976 10979 10981 10983 10986 10988 10989 10990 10991 10992 10993 10994 10995 10997 10999 11000 11001 11002 11002 11002 11002 11003 11003 11003 11003 11003 11004 11005 11005 11005 11003
10850 10859 10870 10878 10883 10890 10894 10898 10904 10909 10913 10917 10920 10923 10927 10930 10937 10944 10946 10945 10947 10949 10951 10953 10954 10956 10958 10959 10961 10962 10964 10967 10971 10974 10977 10980 10982 10984 10986 10987 10989 10990 10991 10992 10992 10994 10996 10997 10999 10999 11000 11000 11000 10999 11000 11000 11000 11000 11000 11001 11001 11001 11000
10841 10848 10859 10869 10876 10882 10887 10891 10896 10902 10908 10912 10914 10916 10919 10923 10930 10936 10939 10941 10943 10945 10947 10949 10950 10952 10954 10955 10958 10960 10962 10965 10968 10970 10973 10976 10978 10981 10984 10985 10986 10987 10988 10989 10990 10991 10993 10994 10996 10996 10997 10997 10997 10997 10997 10997 10997 10997 10997 10997 10998 10997 10996
10831 10837 10847 10858 10867 10874 10879 10884 10889 10896 10902 10906 10909 10912 10915 10920 10925 10930 10933 10936 10938 10941 10942 10943 10945 10947 10948 10949 10952 10956 10961 10963 10965 10966 10970 10973 10976 10979 10981 10982 10983 10984 10985 10986 10987 10988 10990 10991 10992 10993 10993 10994 10995 10994 10994 10994 10994 10994 10994 10994 10994 10994 10993
10821 10828 10836 10848 10858 10865 10870 10877 10882 10889 10895 10899 10902 10906 10911 10916 10921 10924 10927 10930 10934 10936 10937 10937 10938 10941 10943 10945 10948 10952 10957 10960 10961 10964 10967 10970 10974 10976 10978 10979 10980 10981 10982 10983 10984 10985 10987 10988 10989 10990 10990 10991 10991 10991 10991 10990 10990 10990 10990 10990 10990 10990 10989
10812 10819 10826 10836 10848 10856 10862 10869 10875 10880 10886 10891 10896 10901 10906 10911 10915 10918 10921 10924 10928 10931 10930 10929 10932 10936 10940 10943 10945 10948 10953 10955 10958 10961 10964 10968 10971 10973 10975 10976 10977 10978 10979 10980 10981 10982 10983 10985 10986 10987 10987 10987 10988 10988 10988 10987 10986 10986 10986 10986 10986 10985 10985
10803 10808 10814 10823 10836 10847 10855 10860 10866 10872 10877 10883 10889 10895 10900 10904 10908 10911 10915 10919 10923 10923 10922 10924 10928 10932 10936 10939 10941 10944 10948 10952 10955 10958 10962 10965 10968 10969 10971 10972 10974 10975 10976 10977 10978 10979 10980 10981 10983 10983 10984 10984 10984 10984 10984 10984 10983 10982 10982 10982 10982 10981 10980
10793 10798 10803 10812 10825 10837 10847 10852 10857 10862 10867 10874 10881 10888 10893 10899 10904 10907 10911 10915 10915 10914 10915 10920 10924 10928 10932 10934 10936 10939 10944 10949 10953 10956 10959 10962 10964 10966 10967 10968 10970 10972 10973 10974 10975 10976 10977 10978 10979 10980 10980 10980 10980 10979 10980 10980 10979 10979 10978 10978 10978 10977 10976
10783 10789 10794 10802 10814 10826 10837 10843 10847 10852 10858 10866 10874 10881 10889 10896 10900 10902 10905 10907 10906 10906 10910 10915 10920 10923 10926 10929 10932 10935 10940 10946 10951 10954 10957 10959 10961 10962 10963 10964 10966 10967 10969 10970 10972 10973 10974 10974 10975 10976 10976 10976 10975 10975 10975 10975 10975 10975 10975 10974 10973 10973 10971
10773 10781 10787 10794 10804 10815 10825 10832 10838 10843 10850 10858 10867 10874 10882 10888 10892 10895 10897 10898 10899 10901 10905 10911 10915 10918 10921 10924 10927 10931 10935 10942 10947 10950 10953 10956 10958 10959 10959 10960 10962 10963 10965 10967 10968 10968 10969 10969 10970 10971 10971 10971 10971 10971 10971 10970 10970 10970 10970 10970 10968 10967 10966
10763 10772 10779 10786 10794 10804 10813 10822 10830 10836 10842 10851 10859 10866 10873 10879 10884 10887 10888 10889 10892 10897 10901 10906 10911 10914 10916 10920 10924 10928 10932 10938 10943 10946 10948 10951 10953 10954 10954 10955 10957 10959 10961 10962 10963 10963 10963 10963 10964 10965 10965 10966 10966 10966 10967 10966 10964 10964 10965 10965 10964 10962 10962
10752 10760 10768 10776 10784 10794 10803 10812 10821 10828 10835 10843 10851 10858 10865 10871 10876 10879 10879 10881 10886 10891 10896 10901 10907 10910 10912 10916 10921 10925 10930 10934 10938 10941 10943 10945 10947 10949 10950 10951 10952 10955 10956 10957 10957 10957 10957 10958 10958 10959 10959 10960 10961 10962 10962 10961 10959 10959 10959 10960 10959 10958 10957
10741 10749 10758 10767 10775 10784 10793 10802 10811 10821 10828 10834 10842 10849 10856 10862 10868 10871 10873 10875 10879 10884 10891 10897 10902 10905 10908 10912 10917 10922 10926 10930 10933 10936 10938 10940 10941 10943 10944 10945 10947 10949 10950 10950 10951 10952 10952 10951 10952 10952 10953 10954 10956 10956 10956 10955 10954 10954 10954 10955 10955 10953 10952
10729 10740 10751 10761 10768 10775 10784 10793 10803 10813 10820 10825 10832 10840 10848 10854 10860 10865 10867 10869 10872 10879 10886 10893 10896 10900 10904 10908 10913 10918 10922 10924 10927 10929 10931 10934 10935 10937 10938 10939 10941 10942 10943 10944 10944 10945 10944 10944 10944 10945 10947 10949 10950 10950 10949 10949 10949 10948 10949 10950 10949 10948 10948
10718 10730 10744 10756 10763 10769 10777 10786 10796 10805 10812 10817 10824 10833 10840 10846 10852 10857 10860 10864 10868 10874 10881 10886 10890 10895 10899 10904 10909 10913 10915 10918 10921 10923 10925 10927 10930 10931 10932 10933 10934 10935 10935 10935 10936 10937 10937 10937 10937 10938 10941 10943 10943 10943 10943 10942 10943 10943 10943 10943 10944 10944 10943
10709 10722 10736 10749 10757 10763 10770 10778 10788 10797 10805 10811 10818 10826 10833 10838 10844 10850 10855 10859 10865 10870 10874 10879 10884 10890 10895 10899 10903 10906 10908 10912 10915 10917 10920 10924 10926 10927 10927 10926 10926 10927 10927 10927 10928 10930 10931 10932 10932 10933 10935 10936 10937 10937 10936 10936 10937 10937 10937 10937 10939 10939 10939
10700 10714 10727 10740 10748 10754 10761 10770 10779 10788 10797 10804 10811 10818 10825 10830 10837 10844 10849 10854 10860 10865 10869 10874 10880 10885 10890 10894 10898 10901 10904 10908 10913 10917 10920 10921 10921 10921 10920 10919 10918 10918 10919 10920 10921 10923 10924 10925 10926 10927 10929 10929 10930 10930 10929 10930 10931 10932 10931 10932 10933 10933 10934